Change the Weather History Date:

Thursday, April 25, 2013

  Actual Average (KESC) Record (KESC)
Temperature  
Mean Temperature 38 °F -  
Max Temperature 44 °F 51 °F 66 °F (1985)
Min Temperature 30 °F 35 °F 24 °F (1967)
Degree Days  
Heating Degree Days 28    
Moisture  
Dew Point 28 °F    
Average Humidity 77    
Maximum Humidity 99    
Minimum Humidity 39    
Precipitation  
Precipitation 0.09 in - - ()
Sea Level Pressure  
Sea Level Pressure 29.97 in    
Wind  
Wind Speed 6 mph (NW)    
Max Wind Speed 13 mph    
Max Gust Speed 23 mph    
Visibility 8 miles    
Events Snow    
Averages and records for this station are not official NWS values.
T = Trace of Precipitation, MM = Missing Value Source: NWS Daily Summary

Daily Weather History Graph

Daily Weather History Graph

Search for Another Location

Airport or City:

Trip Planner

Search our weather history database for the weather conditions in past years. The results will help you decide how hot, cold, wet, or windy it might be!

Date:

Astronomy

Apr. 25, 2013 Rise Set
Actual Time 6:44 AM EDT 8:50 PM EDT
Civil Twilight 6:12 AM EDT 9:23 PM EDT
Nautical Twilight 5:32 AM EDT 10:04 PM EDT
Astronomical Twilight 4:47 AM EDT 10:49 PM EDT
Moon 9:05 PM EDT (4/25) 6:28 AM EDT (4/25)
Length of Visible Light 15h 11m
Length of Day
14h 05m
Full, 100% of the Moon is Illuminated
Apr 25
Full
Apr 25
Full
May 2
Last Quarter
May 9
New
May 18
First Quarter

Hourly Weather History & Observations

Time (EDT) Temp. Windchill Dew Point Humidity Pressure Visibility Wind Dir Wind Speed Gust Speed Precip Events Conditions
12:17 AM 34.2 °F 28.2 °F 25.3 °F 70% 29.86 in 10.0 mi SSE 6.9 mph - N/A   Clear
12:37 AM 33.1 °F 26.9 °F 26.2 °F 76% 29.86 in 10.0 mi SSE 6.9 mph - N/A   Clear
12:56 AM 32.5 °F 27.1 °F 26.4 °F 78% 29.85 in 10.0 mi SSE 5.8 mph - N/A   Scattered Clouds
1:17 AM 33.1 °F 26.1 °F 27.1 °F 79% 29.85 in 10.0 mi SSE 8.1 mph - N/A   Mostly Cloudy
1:37 AM 33.4 °F 28.1 °F 27.3 °F 78% 29.84 in 10.0 mi South 5.8 mph - N/A   Overcast
1:57 AM 32.5 °F 28.1 °F 27.1 °F 80% 29.85 in 10.0 mi WSW 4.6 mph - N/A   Overcast
2:17 AM 32.7 °F - 27.5 °F 81% 29.85 in 10.0 mi Calm Calm - N/A   Overcast
2:37 AM 34.3 °F 27.0 °F 30.9 °F 87% 29.85 in 5.0 mi WSW 9.2 mph 18.4 mph N/A Snow Light Snow
2:57 AM 33.8 °F 29.6 °F 32.0 °F 93% 29.84 in 4.0 mi WSW 4.6 mph - 0.01 in Snow Light Snow
3:17 AM 33.3 °F 28.9 °F 32.0 °F 95% 29.84 in 5.0 mi SW 4.6 mph - N/A Snow Light Snow
3:37 AM 33.1 °F 28.7 °F 32.0 °F 96% 29.83 in 2.0 mi SW 4.6 mph - 0.01 in Snow Light Snow
3:57 AM 32.9 °F - 32.0 °F 96% 29.83 in 1.8 mi Calm Calm - 0.01 in Snow Light Snow
4:17 AM 32.5 °F - 32.0 °F 98% 29.82 in 1.5 mi Calm Calm - 0.01 in Snow Light Snow
4:36 AM 32.5 °F 25.5 °F 32.0 °F 98% 29.82 in 1.5 mi NW 8.1 mph - 0.02 in Snow Light Snow
4:57 AM 32.4 °F 27.9 °F 32.0 °F 99% 29.82 in 1.0 mi NW 4.6 mph - 0.03 in Snow Snow
5:17 AM 32.4 °F 25.3 °F 32.0 °F 99% 29.83 in 0.8 mi NNW 8.1 mph - 0.02 in Snow Snow
5:37 AM 32.0 °F 25.6 °F 31.5 °F 98% 29.84 in 0.8 mi NNW 6.9 mph - 0.03 in Snow Snow
5:57 AM 32.0 °F 25.6 °F 31.1 °F 96% 29.84 in 1.0 mi North 6.9 mph - 0.04 in Snow Light Snow
6:50 AM 32.0 °F 26.4 °F 30.2 °F 93% 29.86 in 4.0 mi NNW 5.8 mph - N/A Snow Light Snow
7:50 AM 32.0 °F 24.2 °F 30.2 °F 93% 29.88 in 10.0 mi NNW 9.2 mph 16.1 mph N/A   Overcast
8:50 AM 32.0 °F 26.4 °F 30.2 °F 93% 29.92 in 1.2 mi NNW 5.8 mph - N/A Snow Light Snow
9:50 AM 33.8 °F 27.0 °F 30.2 °F 87% 29.95 in 10.0 mi NNW 8.1 mph - N/A   Mostly Cloudy
10:50 AM 35.6 °F 29.2 °F 30.2 °F 81% 29.97 in 10.0 mi NW 8.1 mph - N/A   Scattered Clouds
11:55 AM 39.2 °F 32.5 °F 32.0 °F 75% 30.00 in 10.0 mi NW 10.4 mph - N/A   Scattered Clouds
12:50 PM 42.8 °F 36.2 °F 21.2 °F 42% 30.02 in 10.0 mi NNW 12.7 mph 23.0 mph N/A   Mostly Cloudy
1:50 PM 42.8 °F 37.5 °F 21.2 °F 42% 30.04 in 10.0 mi North 9.2 mph - N/A   Mostly Cloudy
2:50 PM 44.6 °F 38.4 °F 21.2 °F 39% 30.06 in 10.0 mi WNW 12.7 mph - N/A   Scattered Clouds
3:50 PM 42.8 °F 36.2 °F 23.0 °F 46% 30.09 in 10.0 mi NW 12.7 mph 18.4 mph N/A   Mostly Cloudy
4:50 PM 44.6 °F 43.1 °F 24.8 °F 46% 30.09 in 10.0 mi East 3.5 mph - N/A   Mostly Cloudy
5:50 PM 41.0 °F 35.2 °F 24.8 °F 53% 30.11 in 10.0 mi ENE 9.2 mph - N/A   Mostly Cloudy
6:50 PM 41.0 °F 34.3 °F 26.6 °F 57% 30.12 in 10.0 mi NE 11.5 mph - N/A   Mostly Cloudy
7:50 PM 39.2 °F 33.6 °F 26.6 °F 61% 30.13 in 10.0 mi ENE 8.1 mph - N/A   Scattered Clouds
8:50 PM 37.4 °F 33.8 °F 26.6 °F 65% 30.14 in 10.0 mi ENE 4.6 mph - N/A   Clear
9:50 PM 35.6 °F - 26.6 °F 70% 30.16 in 10.0 mi Calm Calm - N/A   Clear
10:17 PM 35.6 °F - 25.7 °F 67% 30.17 in 10.0 mi Calm Calm - N/A   Clear
10:37 PM 34.7 °F - 25.7 °F 70% 30.17 in 10.0 mi Calm Calm - N/A   Clear
10:57 PM 34.9 °F - 25.7 °F 69% 30.17 in 10.0 mi Calm Calm - N/A   Clear
11:17 PM 32.2 °F - 25.7 °F 77% 30.17 in 10.0 mi Calm Calm - N/A   Clear
11:37 PM 31.6 °F - 25.3 °F 78% 30.18 in 10.0 mi Calm Calm - N/A   Clear
11:57 PM 30.0 °F - 24.8 °F 81% 30.18 in 10.0 mi Calm Calm - N/A   Clear